Change the Weather History Date:

Monday, December 3, 2012

  Actual Average Record
Temperature  
Mean Temperature 68 °F -  
Max Temperature 80 °F 71 °F 90 °F (1958)
Min Temperature 57 °F 44 °F 33 °F (1948)
Cooling Degree Days 4    
Growing Degree Days 18 (Base 50)    
Moisture  
Dew Point 51 °F    
Average Humidity 57    
Maximum Humidity 72    
Minimum Humidity 36    
Precipitation  
Precipitation 0.00 in - - ()
Sea Level Pressure  
Sea Level Pressure 30.05 in    
Wind  
Wind Speed 5 mph (WNW)    
Max Wind Speed 7 mph    
Max Gust Speed -    
Visibility 10 miles    
Events      
Averages and records for this station are not official NWS values.
T = Trace of Precipitation, MM = Missing Value Source: NWS Daily Summary

Daily Weather History Graph

Daily Weather History Graph

Search for Another Location

Airport or City:

Trip Planner

Search our weather history database for the weather conditions in past years. The results will help you decide how hot, cold, wet, or windy it might be!

Date:

Astronomy

Dec. 03, 2012 Rise Set
Actual Time 6:28 AM PST 4:35 PM PST
Civil Twilight 6:01 AM PST 5:02 PM PST
Nautical Twilight 5:31 AM PST 5:33 PM PST
Astronomical Twilight 5:01 AM PST 6:03 PM PST
Moon 9:17 PM PST 10:02 AM PST
Length of Visible Light 11h 00m
Length of Day
10h 06m
Waning Gibbous, 77% of the Moon is Illuminated
Dec 3
Waning Gibbous
Dec 6
Last Quarter
Dec 13
New
Dec 19
First Quarter
Dec 28
Full

Hourly Weather History & Observations

Time (PST) Temp. Dew Point Humidity Pressure Visibility Wind Dir Wind Speed Gust Speed Precip Events Conditions
12:53 AM 62.1 °F 50.0 °F 65% 30.00 in 10.0 mi West 5.8 mph - N/A   Clear
1:53 AM 61.0 °F 50.0 °F 67% 30.02 in 10.0 mi West 5.8 mph - N/A   Clear
2:53 AM 62.1 °F 48.9 °F 62% 30.01 in 10.0 mi NW 3.5 mph - N/A   Clear
3:53 AM 60.1 °F 48.9 °F 67% 30.00 in 10.0 mi West 6.9 mph - N/A   Clear
4:53 AM 61.0 °F 48.9 °F 64% 30.01 in 10.0 mi NNW 4.6 mph - N/A   Clear
5:53 AM 57.0 °F 48.0 °F 72% 30.03 in 10.0 mi West 4.6 mph - N/A   Clear
6:53 AM 57.2 °F 48.2 °F 72% 30.05 in 10.0 mi WSW 3.5 mph - N/A   Clear
7:53 AM 66.0 °F 51.1 °F 59% 30.07 in 10.0 mi Calm Calm - N/A   Clear
8:53 AM 69.1 °F 51.1 °F 53% 30.08 in 10.0 mi SW 5.8 mph - N/A   Clear
9:53 AM 72.0 °F 53.1 °F 51% 30.09 in 10.0 mi Calm Calm - N/A   Clear
10:53 AM 77.0 °F 53.1 °F 43% 30.07 in 10.0 mi Variable 5.8 mph - N/A   Clear
11:53 AM 79.0 °F 52.0 °F 39% 30.05 in 10.0 mi NW 5.8 mph - N/A   Clear
12:53 PM 80.1 °F 52.0 °F 38% 30.03 in 10.0 mi Variable 5.8 mph - N/A   Clear
1:53 PM 80.1 °F 51.1 °F 36% 30.02 in 10.0 mi NNE 6.9 mph - N/A   Clear
2:53 PM 80.1 °F 52.0 °F 38% 30.01 in 10.0 mi NE 6.9 mph - N/A   Clear
3:53 PM 78.1 °F 54.0 °F 43% 30.01 in 10.0 mi East 6.9 mph - N/A   Clear
4:53 PM 75.0 °F 53.1 °F 46% 30.02 in 10.0 mi ESE 3.5 mph - N/A   Clear
5:53 PM 66.9 °F 51.1 °F 57% 30.04 in 10.0 mi Calm Calm - N/A   Clear
6:53 PM 63.0 °F 51.1 °F 65% 30.06 in 10.0 mi West 4.6 mph - N/A   Clear
7:53 PM 63.0 °F 52.0 °F 67% 30.08 in 10.0 mi Calm Calm - N/A   Clear
8:53 PM 64.0 °F 51.1 °F 63% 30.10 in 10.0 mi Calm Calm - N/A   Clear
9:53 PM 59.0 °F 50.0 °F 72% 30.11 in 10.0 mi West 5.8 mph - N/A   Clear
10:53 PM 57.9 °F 48.0 °F 70% 30.12 in 10.0 mi Calm Calm - N/A   Clear
11:53 PM 57.0 °F 46.9 °F 69% 30.12 in 10.0 mi WSW 4.6 mph - N/A   Clear